Find Starlink 6334

NORAD ID: 57238 Int'l Des: 2023-094 Owner: SPXS Country: US Constellation: starlink operational
LEOCIRCULAR

实时位置

正在加载3D地球...

关于 Starlink 6334

正在加载描述...

即将过境

Passes for default location (London). Set your location on the main map for personalized predictions.

高度历史

Loading altitude history...

两行轨道根数

1 57238U 23094W 26124.18052832 .00000590 00000-0 30963-4 0 9996
2 57238 43.0049 66.7541 0001469 271.2473 88.8210 15.27572212155723
Epoch: May 4, 2026 • Age: 12 hours

当前状态

高度 484.6 km
速度 7.62 km/s
星下点 -10.35°S, 150.12°E
发射日期 Jul 7, 2023
运行时间 2.8 years
类型 internet

技术详情

分类 Payload
质量 305.00 kg
干质量 290.00 kg
总质量 305.00 kg
长度 0.20 m
直径 2.80 m
跨度 9.00 m
形状 Box + pan
制造商 SPXS
平台类型 Starlink
阶段状态 In Orbit
所有者/国家 SPXS/US

Most Searched